Regional Weather Roundup
Issued by NWS

Home | Current Version | Previous Version | Text Only | Print | Product List | Glossary Off
Versions: 1 2 3 4 5 6 7 8 9 10 11 12 13 14 15 16 17 18 19 20 21 22 23 24 25 26 27 28 29 30 31 32 33 34 35 36 37 38 39 40 41 42 43 44 45 46 47 48 49 50

000
ASUS43 KIND 240009
RWRIN

WEATHER ROUNDUP FOR INDIANA
NATIONAL WEATHER SERVICE INDIANAPOLIS IN
800 PM EDT SAT SEP 23 2017

NOTE: "FAIR" INDICATES FEW OR NO CLOUDS BELOW 12,000 FEET WITH NO
SIGNIFICANT WEATHER AND/OR OBSTRUCTIONS TO VISIBILITY.

* - STATION DOES NOT REPORT WEATHER SUCH AS PRECIPITATION OR FOG.

+ - STATION NOT QUALITY CONTROLLED BY THE NATIONAL WEATHER SERVICE.
    USE DATA WITH CAUTION...ESPECIALLY DEWPOINT AND RELATIVE
    HUMIDITY OBSERVATIONS.

INZ001>003-010>013-019-020-240100-
NORTHWEST INDIANA

CITY           SKY/WX    TMP DP  RH WIND       PRES   REMARKS
GARY /AIRPORT/ CLEAR     82  64  54 E7        30.05S
KNOX *+        CLEAR     79  66  65 E5        30.05S
LA PORTE +     CLEAR     80  67  62 E3        30.07S
6HR MIN TEMP:  80; 6HR MAX TEMP:  92;

MICHIGAN CITY+ CLEAR     77  66  69 CALM      30.06F
MONTICELLO +   CLEAR     81  64  57 CALM      30.05R
6HR MIN TEMP:  81; 6HR MAX TEMP:  91;

RENSSELAER +   CLEAR     82  54  36 SE5       30.05S
VALPARAISO     CLEAR     83  66  56 SE5       30.06S
6HR MIN TEMP:  83; 6HR MAX TEMP:  95;


$$

LMZ046-743>745-240100-
SOUTHERN LAKE MICHIGAN

STATION/POSITION TIME  TEMP    WIND        PRES    WAVE
                       AIR SEA DIR/SP/G            HT
                 (UTC) (F)     (DEG/KT/KT) (MB)    (FT)
BURNS HARBOR     0002   76      80/  9/ 12 1017.9
MICHIGAN CITY    2340   79      50/ 13/ 13   N/A
5NW MICH CITY    0000   75 73   90/  8/ 10   N/A     1

$$

INZ004-005-014>016-021>024-240100-
NORTH CENTRAL INDIANA

CITY           SKY/WX    TMP DP  RH WIND       PRES   REMARKS
GOSHEN         CLEAR     81  63  54 SE6       30.08S
6HR MIN TEMP:  81; 6HR MAX TEMP:  92;

LOGANSPORT +   CLEAR     79  64  61 E5        30.07S
PERU/GRISSOM   CLEAR     81  65  58 E5        30.06S
6HR MIN TEMP:  81; 6HR MAX TEMP:  91;

SOUTH BEND     CLEAR     84  65  52 SE7       30.07S
6HR MIN TEMP:  84; 6HR MAX TEMP:  91;

WARSAW +       CLEAR     77  64  65 CALM      30.08S

$$

INZ006>009-017-018-025>027-240100-
NORTHEAST INDIANA

CITY           SKY/WX    TMP DP  RH WIND       PRES   REMARKS
AUBURN +       CLEAR     75  64  69 CALM      30.10R
FORT WAYNE     CLEAR     79  65  62 E5        30.09S
6HR MIN TEMP:  77; 6HR MAX TEMP:  91;

HUNTINGTON +   CLEAR     80  65  60 E3        30.08R
6HR MIN TEMP:  80; 6HR MAX TEMP:  90;

KENDALLVILLE + CLEAR     76  68  77 CALM      30.10S

$$

INZ028-029-035-036-043>045-051>053-240100-
WEST CENTRAL INDIANA

CITY           SKY/WX    TMP DP  RH WIND       PRES   REMARKS
GREENCASTLE +  CLEAR     79  61  53 SE3       30.06S
LAFAYETTE      CLEAR     78  66  66 E8        30.04R
6HR MIN TEMP:  78; 6HR MAX TEMP:  91;

TERRE HAUTE    CLEAR     80  61  52 E5        30.04S
6HR MIN TEMP:  80; 6HR MAX TEMP:  93;


$$

INZ030>032-037>040-046>048-054>057-064-065-240100-
CENTRAL INDIANA

CITY           SKY/WX    TMP DP  RH WIND       PRES   REMARKS
CP ATTERBURY + CLEAR     75  64  69 CALM      30.07S
COLUMBUS       CLEAR     81  57  44 CALM      30.06S
FRANKFORT +    PTCLDY    79  67  66 SE6       30.09R
6HR MIN TEMP:  79; 6HR MAX TEMP:  94;

INDIANAPOLIS   PTCLDY    82  64  54 SE7       30.06R
6HR MIN TEMP:  82; 6HR MAX TEMP:  91;

-EAGLE CREEK   CLEAR     85  61  44 SE6       30.06R
6HR MIN TEMP:  84; 6HR MAX TEMP:  92;

KOKOMO +       CLEAR     78  68  71 E5        30.08S
6HR MIN TEMP:  78; 6HR MAX TEMP:  91;

MT COMFORT *+  CLEAR     81  63  54 SE3       30.08R
SHELBYVILLE    CLEAR     76  64  66 SE3       30.06S
6HR MIN TEMP:  76; 6HR MAX TEMP:  93;

ZIONSVILLE +   CLEAR     74  67  78 CALM      30.08S
6HR MIN TEMP:  74; 6HR MAX TEMP:  88;


$$

INZ033-034-041-042-049-050-058-059-240100-
EAST CENTRAL INDIANA

CITY           SKY/WX    TMP DP  RH WIND       PRES   REMARKS
MUNCIE         CLEAR     75  65  70 E5        30.08R
6HR MIN TEMP:  75; 6HR MAX TEMP:  93;

RICHMOND +     CLEAR     75  63  64 SE3       30.11R

$$

INZ060-061-067>069-081>083-085>088-240100-
SOUTHWEST INDIANA

CITY           SKY/WX    TMP DP  RH WIND       PRES   REMARKS
EVANSVILLE     CLEAR     80  63  55 CALM      30.03S
6HR MIN TEMP:  80; 6HR MAX TEMP:  89;

HUNTINGBURG +  CLEAR     80  66  62 CALM      30.04S
6HR MIN TEMP:  79; 6HR MAX TEMP:  88;

WASHINGTON +   CLEAR     80  61  53 SE5       30.03S
6HR MIN TEMP:  80; 6HR MAX TEMP:  91;


$$

INZ062-063-066-070>080-084-089>092-240100-
SOUTH CENTRAL AND SOUTHEAST INDIANA

CITY           SKY/WX    TMP DP  RH WIND       PRES   REMARKS
BLOOMINGTON    CLEAR     80  60  50 CALM      30.06R
6HR MIN TEMP:  80; 6HR MAX TEMP:  91;

MADISON *+     CLEAR     72  68  88 CALM      30.09S
NORTH VERNON + CLEAR     72  68  88 CALM      30.08S
SEYMOUR +      CLEAR     79  63  57 CALM      30.06S

$$




USA.gov is the U.S. government's official web portal to all federal, state and local government web resources and services.